This is the latest recevied weather packets stored in our database for station/object XE2RCS-1. If no packets are shown the sender has not sent any weather packets the latest 10 day(s).
| Time | Temp. | Humidity | Pressure | Rain* | Wind** | Luminosity | Snow |
|---|---|---|---|---|---|---|---|
| 1777686729 | 18.89° C | 84% | 1009 hPa | 0 mm | - | - | - |
| 1777686129 | 19.44° C | 83% | 1009 hPa | 0 mm | - | - | - |
| 1777685528 | 20° C | 82% | 1008 hPa | 0 mm | - | - | - |
| 1777684928 | 20° C | 82% | 1008 hPa | 0 mm | - | - | - |
| 1777684327 | 20.56° C | 82% | 1008 hPa | 0 mm | - | - | - |
| 1777683726 | 20° C | 72% | 1007 hPa | 0 mm | - | - | - |
| 1777683126 | 20.56° C | 76% | 1007 hPa | 0 mm | - | - | - |
| 1777682525 | 21.67° C | 86% | 1007 hPa | 0 mm | - | - | - |
| 1777681925 | 24.44° C | 10% | - | 0 mm | - | - | - |
| 1777681324 | 24.44° C | 10% | - | 0 mm | - | - | - |
| 1777680723 | 22.22° C | 63% | 1006 hPa | 0 mm | - | - | - |
| 1777680123 | 22.78° C | 62% | 1006 hPa | 0 mm | - | - | - |
| 1777679522 | 22.78° C | 61% | 1006 hPa | 0 mm | - | - | - |
| 1777678921 | 25° C | 69% | 1006 hPa | 0 mm | - | - | - |
| 1777678321 | 25° C | 52% | 1006 hPa | 0 mm | - | - | - |
| 1777677720 | 25° C | 51% | 1006 hPa | 0 mm | - | - | - |
| 1777677120 | 25° C | 50% | 1006 hPa | 0 mm | - | - | - |
| 1777676519 | 25.56° C | 49% | 1006 hPa | 0 mm | - | - | - |
| 1777675918 | 25.56° C | 48% | 1006 hPa | 0 mm | - | - | - |
| 1777675318 | 26.11° C | 46% | 1006 hPa | 0 mm | - | - | - |
| 1777674717 | 26.67° C | 44% | 1006 hPa | 0 mm | - | - | - |
| 1777674117 | 26.67° C | 42% | 1005 hPa | 0 mm | - | - | - |
| 1777673516 | 27.78° C | 41% | 1005 hPa | 0 mm | - | - | - |
| 1777672915 | 27.78° C | 40% | 1005 hPa | 0 mm | - | - | - |
| 1777672315 | 27.78° C | 38% | 1005 hPa | 0 mm | - | - | - |
* Rain latest hour (hover to see other rain measurements)
** Current wind speed in m/s (hover to see current wind gust speed)